Regional Weather Roundup
Issued by NWS Upton, NY

Current Version | Previous Version | Text Only | Print | Product List | Glossary On
Versions: 1 2 3 4 5 6 7 8 9 10 11 12 13 14 15 16 17 18 19 20 21 22 23 24 25 26 27 28 29 30 31 32 33 34 35 36 37 38 39 40 41 42 43 44 45 46 47 48 49 50
684
ASUS41 KOKX 101304
RWROKX

REGIONAL WEATHER ROUNDUP
NATIONAL WEATHER SERVICE NEW YORK NY
800 AM EST WED FEB 10 2016

NOTE: "FAIR" INDICATES FEW OR NO CLOUDS BELOW 12,000 FEET WITH NO
SIGNIFICANT WEATHER AND/OR OBSTRUCTIONS TO VISIBILITY.

NYZ071-072-176-178-NJZ106-104-101400-
NEW YORK CITY METRO AREA


CITY           SKY/WX    TMP DP  RH WIND       PRES   REMARKS
CENTRAL PARK   CLOUDY    33  28  81 W7        29.63R HAZE    WCI  27
LAGUARDIA APRT LGT SNOW  35  29  78 W8        29.61R WCI  29
KENNEDY INTL   CLOUDY    35  30  82 W12       29.62S WCI  27
NEWARK/LIBERTY LGT SNOW  32  30  92 W9        29.62R FOG     WCI  24
BRNX BOT. GARD   N/A     32  30  93 W9        29.61F WCI  24
TETERBORO      LGT SNOW  33  28  81 W6        29.61R WCI  28
$$

NYZ177-179-078>081-101400-
LONG ISLAND NEW YORK

CITY           SKY/WX    TMP DP  RH WIND       PRES   REMARKS
FARMINGDALE    CLOUDY    33  30  88 CALM      29.61R FOG
ISLIP          LGT SNOW  31  29  92 CALM      29.60R FOG
SHIRLEY        CLOUDY    29  27  92 CALM      29.62R
RIVERHEAD        N/A     32  27  80 CALM      29.59S
WESTHAMPTON    CLOUDY    28  27  96 N3        29.62S
EAST HAMPTON   LGT SNOW  29  28  97 N3        29.60S
MONTAUK POINT    N/A     33  32  96 CALM      29.61S
$$

NYZ052-065-067-101400-
HUDSON VALLEY

CITY           SKY/WX    TMP DP  RH WIND       PRES   REMARKS
WHITE PLAINS   LGT SNOW  31  28  89 CALM      29.58R VSB 1
NEWBURGH       LGT SNOW  30  30 100 W7        29.58R WCI  23
MONTGOMERY     CLOUDY    31  29  92 SW7       29.57R FOG     WCI  24
POUGHKEEPSIE   CLOUDY    32  29  88 CALM      29.59R
ALBANY         LGT SNOW  29  26  89 S5        29.57S FOG     WCI  24
$$

NJZ001-105-106-008-010-013-015-019>022-104-101400-
NEW JERSEY

CITY           SKY/WX    TMP DP  RH WIND       PRES   REMARKS
NEWARK/LIBERTY LGT SNOW  32  30  92 W9        29.62R FOG     WCI  24
TETERBORO      LGT SNOW  33  28  81 W6        29.61R WCI  28
CALDWELL       CLOUDY    32  29  88 VRB5      29.62R FOG     WCI  27
MORRISTOWN     LGT SNOW  32  30  93 MISG      29.62R
SOMERVILLE     CLOUDY    32  28  85 W5        29.62R FOG     WCI  27
SUSSEX         CLOUDY    30  27  88 SW5       29.59R FOG     WCI  25
ANDOVER          N/A     30  27  88 VRB3      29.60R
TRENTON        LGT SNOW  30  27  88 W9        29.65R VSB 3/4 WCI  22
MILLVILLE      LGT SNOW  30  27  88 W15       29.71R VSB 1   WCI  19
ATLANTIC CITY  LGT SNOW  30  28  92 W15       29.68R FOG     WCI  19
WRIGHTSTOWN    LGT SNOW  30  30 100 W8        29.64R FOG     WCI  23
TOMS RIVER     CLOUDY    30  28  93 W9G17     29.66R WCI  22
BELMAR         CLOUDY    32  23  69 W12       29.63R WCI  23
$$

PAZ047>061-062-071-101400-
EASTERN PENNSYLVANIA

CITY           SKY/WX    TMP DP  RH WIND       PRES   REMARKS
PHILADELPHIA   LGT SNOW  32  25  75 W14       29.70R WCI  22
ALLENTOWN      CLOUDY    30  23  75 W8        29.64R HAZE    WCI  22
SCRANTON       CLOUDY    28  24  85 SW7       29.59R WCI  21
$$

CTZ002-004>006-009-010-012-RIZ004-006-007-MAZ004-011-015-101400-
SOUTHERN NEW ENGLAND
 IN CT

CITY           SKY/WX    TMP DP  RH WIND       PRES   REMARKS
BRADLEY INTL   LGT SNOW  27  25  92 CALM      29.59S VSB 3/4
HARTFORD       LGT SNOW  29  27  92 CALM      29.61R VSB 3/4
DANBURY        CLOUDY    29  25  85 SE3       29.59R FOG
WTRBRY/OXFORD  LGT SNOW  28  19  69 CALM      29.58R FOG
BRIDGEPORT     CLOUDY    32  30  92 N3        29.61R FOG
MERIDEN        LGT SNOW  28  25  88 CALM      29.60S VSB 3/4
NEW HAVEN      LGT SNOW  30  29  96 CALM      29.60S VSB 3/4
CHESTER        CLOUDY    28  28 100 CALM      29.60R FOG
GROTON         LGT SNOW  28  27  96 N3        29.61S FOG
WILLIMANTIC    LGT SNOW  22  18  85 CALM      29.61S FOG

 IN RI

CITY           SKY/WX    TMP DP  RH WIND       PRES   REMARKS
PROVIDENCE     LGT SNOW  26  23  88 CALM      29.62S FOG
BLOCK ISLAND   CLOUDY    34  32  93 E3        29.60S
WESTERLY       LGT SNOW  27  25  92 N3        29.62R FOG

 IN MA

CITY           SKY/WX    TMP DP  RH WIND       PRES   REMARKS
BOSTON         FLURRIES  27  21  78 S8        29.63R WCI  19
WORCESTER      LGT SNOW  23  21  92 SW8       29.55S VSB 1   WCI  14
WESTFIELD      SNOW      24  22  91 CALM      29.59R VSB 1/2
PROVINCETOWN   CLOUDY    28  25  88 CALM      29.64S
NANTUCKET      CLOUDY    31  26  82 NE3       29.62S
$$

ANZ330-335-338-340-345-350-353-355-101400-
COASTAL MARINE OBSERVATIONS


STATION/POSITION TIME  SKY/WX   TEMP    WIND        PRES    VSBY  WAVE
                                AIR SEA DIR/SP/G                  HT/PER
                 (UTC)          (F)     (DEG/KT/KT) (MB)    (MI)  (FT/S)
NY HARB ENTRANCE 1150            35 43  270/ 12/ 14 1001.9          4/10
4S FIRE IS       NOT AVBL
20S FIRE ISLAND  1150            36 44  290/  8/ 12 1002.2          4/10
GREAT SOUTH BAY  NOT AVBL
23SW MTP         1250            36 45  140/  4/  6 1001.7          5/10
HUDSON CANYON    1150            35 48              1001.2          6/10
KINGS POINT      1200            34 38  310/  8/ 10 1001.9
EXECUTION ROCKS  NOT AVBL
CENTRAL LI SOUND 1230            33     180/  6/  8   N/A           0
EASTERN LI SOUND 1200            32 42   40/  4/  6   N/A
ROBBINS REEF     1200            33     260/ 13/ 16 1001.8
$$


>>>>>>>>>>>>>>>>>>>>>>>>>>>> KEY <<<<<<<<<<<<<<<<<<<<<<<<<<<
>                                                          <
>     SKY/WX - SKY CONDITION/PRESENT WEATHER               <
>     TMP    - TEMPERATURE IN FAHRENHEIT                   <
>     DP     - DEWPOINT IN FAHRENHEIT                      <
>     RH     - RELATIVE HUMIDITY IN PERCENT                <
>     WIND   - DIRECTION AND SPEED IN MPH                  <
>     PRES   - MEAN SEA LEVEL PRESSURE IN INCHES OF HG     <
>     WCI    - WIND CHILL INDEX                            <
>     VSB    - VISIBILITY IN MILES                         <
>     HX     - HEAT INDEX                                  <
>     TC     - TEMPERATURE IN CELSIUS                      <
>     VRB    - VARIABLE WIND DIRECTION                     <
>                                                          <
>>>>>>>>>>>>>>>>>>>>>>>>>>>> KEY <<<<<<<<<<<<<<<<<<<<<<<<<<<






USA.gov is the U.S. government's official web portal to all federal, state and local government web resources and services.